Regional Weather Roundup
Issued by NWS Austin/San Antonio, TX

Home | Current Version | Previous Version | Text Only | Print | Product List | Glossary On
Versions: 1 2 3 4 5 6 7 8 9 10 11 12 13 14 15 16 17 18 19 20 21 22 23 24 25 26 27 28 29 30 31 32 33 34 35 36 37 38 39 40 41 42 43 44 45 46 47 48 49 50
000
ASUS44 KEWX 162202
RWREWX
SOUTH TEXAS REGIONAL WEATHER ROUNDUP
NATIONAL WEATHER SERVICE AUSTIN/SAN ANTONIO TX
400 PM CST TUE JAN 16 2018

NOTE: "FAIR" INDICATED FEW OR NO CLOUDS BELOW 12,000 FEET WITH NO
SIGNIFICANT WEATHER AND/OR OBSTRUCTIONS TO VISIBILITY.

* - THESE STATIONS ARE NOT NWS OR FAA STATIONS...AND ARE NOT SUBJECT
    TO NWS AND FAA QUALITY CONTROL.

TXZ171-172-183>190-162300-
TEXAS HILL COUNTRY AND EDWARDS PLATEAU

CITY           SKY/WX    TMP DP  RH WIND       PRES   REMARKS
JUNCTION       CLOUDY    27  -3  27 N12       30.64F WCI  17
*LLANO         CLOUDY    30   1  29 N12       30.73R WCI  21
BURNET         CLOUDY    26   0  32 N15G22    30.68R WCI  14
*HORSESHOE BAY CLOUDY    29   4  33 N10       30.67S WCI  20
*KERRVILLE     CLOUDY    26   5  39 N15       30.62S WCI  14
*FREDERICKSBRG CLOUDY    28  -4  24 N17       30.62F WCI  15
*ROCKSPRINGS     N/A     27  -4  26 N8G16     30.62F WCI  18
*BOERNE STAGE  CLOUDY    27   5  39 N16G22    30.62S WCI  14
*CASTROVILLE   CLOUDY    31  13  47 N13G18    30.67S WCI  21
HONDO          CLOUDY    33  18  53 N13       30.65S WCI  24
*UVALDE        CLOUDY    32   9  37 N9        30.66F WCI  25
DEL RIO        CLOUDY    35  -1  21 N10       30.67F WCI  27
LAUGHLIN AFB   CLOUDY    34  -2  21 N12       30.66S WCI  26
CARRIZO SPRGS  CLOUDY    34  18  51 NE9       30.67S WCI  26
*EAGLE PASS    CLOUDY    36  -2  20 N9G15     30.67S WCI  29
*FAITH RANCH   CLOUDY    36  18  48 N14       30.66F WCI  27
$$

TXZ173-191>194-202-209-217>225-228-162300-
CENTRAL AND SOUTH CENTRAL TEXAS

CITY           SKY/WX    TMP DP  RH WIND       PRES   REMARKS
GEORGETOWN     CLOUDY    28   6  39 N12       30.69S WCI  18
AUSTIN/BERGSTM CLOUDY    28  13  53 N13G22    30.68R WCI  17
AUSTIN/MABRY   CLOUDY    28   5  37 N8G18     30.69R WCI  20
*AUSTIN/EXEC   CLOUDY    27   7  43 N16       30.68S WCI  14
*LAGO VISTA    CLOUDY    28   2  33 MISG      30.65S
SAN MARCOS     CLOUDY    28  15  58 N18G24    30.67S WCI  15
NEW BRAUNFELS  CLOUDY    28  14  55 N15       30.65S WCI  16
RANDOLPH AFB   CLOUDY    29   7  39 N16G22    30.64S WCI  17
PT SAN ANTONIO CLOUDY    30  12  47 N16       30.63S WCI  18
SAN ANTONIO    CLOUDY    29  11  47 N13G21    30.65S WCI  19
STINSON FIELD  CLOUDY    32  13  45 N10       30.65S WCI  24
*LA GRANGE     CLOUDY    28  17  63 N13G21    30.65S WCI  18
*GIDDINGS      CLOUDY    26  16  65 N9G18     30.67S WCI  17
*GONZALES      CLOUDY    28  18  68 N10G18    30.67R WCI  18
$$

TXZ163>164-176>182-195>201-210>213-226-227-235-162300-
SOUTHEAST TEXAS

CITY           SKY/WX    TMP DP  RH WIND       PRES   REMARKS
COLLEGE STN    CLOUDY    25  13  60 N18       30.67S WCI  11
*BRYAN         CLOUDY    24  11  57 N14G24    30.69S WCI  12
*CALDWELL      CLOUDY    24  12  59 N16G24    30.68S WCI  11
*CROCKETT        N/A     23  12  63 CALM      30.70S
*BRENHAM       CLOUDY    27  17  66 N17       30.67S WCI  15
HUNTSVILLE     CLOUDY    23  15  71 N12G20    30.65S WCI  12
CONROE         CLOUDY    25  18  74 N9G17     30.64R WCI  15
HOUSTON BUSH   CLOUDY    26  21  81 N18G24    30.64R WCI  13
HOUSTON HOBBY  LGTSLEET  27  23  85 N18       30.62R WCI  14
*HOUSTON SW AP MIX PCPN  26  22  84 MISG      30.64R
PEARLAND       MIX PCPN  27  23  85 N13G23    30.63R WCI  16
HOUSTON HOOKS  MIX PCPN  25  20  81 N8        30.65R WCI  16
ELLINGTON FLD  LGTSLEET  27  23  86 N3        30.63R FOG
SUGAR LAND     MIX PCPN  27  21  78 N16G24    30.63R WCI  15
*HOUSTON EXEC  MIX PCPN  25  19  80 CALM      30.66R
*CLEVELAND MUN PTSUNNY   26  18  74 N8        30.64R WCI  17
*WHARTON       CLOUDY    26  21  82 CALM      30.65R
*COLUMBUS      FLURRIES  26  20  78 N8        30.66F WCI  17
*EAGLE LAKE    FLURRIES  26  20  77 MISG      30.66R
$$

TXZ214>216-236>238-162300-
THE UPPER TEXAS COAST

CITY           SKY/WX    TMP DP  RH WIND       PRES   REMARKS
*ORANGE        MIX PCPN  29  27  92 N8G16     30.60R WCI  21
PORT ARTHUR    MIX PCPN  28  24  85 N20G25    30.58R WCI  15
GALVESTON      CLOUDY    31  27  85 N23G33    30.59R FOG     WCI  18
ANGLETON         N/A    N/A N/A N/A MISG      30.61R
*BAY CITY      NOT AVBL
PALACIOS       CLOUDY    27  24  89 N25G32    30.62R WCI  12
$$

TXZ229>234-239>247-162300-
TEXAS COASTAL BEND AND RIO GRANDE PLAINS

CITY           SKY/WX    TMP DP  RH WIND       PRES   REMARKS
VICTORIA       CLOUDY    27  20  75 N20G31    30.65R WCI  13
*BEEVILLE      CLOUDY    28  22  80 N15G23    30.65R WCI  16
ROCKPORT       CLOUDY    29  23  78 N21G31    30.63R WCI  16
*PORT ARANSAS  NOT AVBL
*PORT LAVACA   CLOUDY    28  23  83 N22       30.64R WCI  13
*INGLESIDE     CLOUDY    31  24  74 N16G24    30.62S WCI  20
CORPUS CHRISTI CLOUDY    30  22  72 N23       30.62S WCI  17
CORPUS NAS     CLOUDY    33  25  72 N26G35    30.62R WCI  20
*ROBSTOWN      NOT AVBL
ALICE          CLOUDY    29  22  75 N16G26    30.64R WCI  17
KINGSVILLE NAS CLOUDY    31  22  69 N18G29    30.64R WCI  19
COTULLA        CLOUDY    34  17  50 N13       30.68R WCI  25
LAREDO         CLOUDY    32  26  78 N12       30.68R WCI  23
$$

TXZ248>255-162300-
DEEP SOUTH TEXAS

CITY           SKY/WX    TMP DP  RH WIND       PRES   REMARKS
BROWNSVILLE    NOT AVBL
PORT ISABEL    NOT AVBL
*SOUTH PADRE   NOT AVBL
HARLINGEN      NOT AVBL
*HEBBRONVILLE  CLOUDY    29  27  92 N12       30.63S WCI  19
MCALLEN        NOT AVBL
*WESLACO       LGT SNOW  31  29  92 N22G30    30.61R WCI  19
FALFURRIAS     CLOUDY    32  26  78 N14G24    30.64R WCI  22
EDINBURG       CLOUDY    33  31  92 N16G23    30.63R FOG     WCI  22
*ZAPATA        CLOUDY    32  28  83 N10G18    30.66R WCI  24
$$

TXZ213>215-236>238-242>244-246-247-251-254-255-162300-
CMAN STATIONS

STATION/POSITION TIME  TEMP    WIND        PRES    WAVE
                       AIR SEA DIR/SP/G            HT/PER
                 (UTC) (F)     (DEG/KT/KT) (MB)    (FT/S)
SABINE PASS      2130   32 50  360/ 19/ 26 1036.4
SEA RIM ST PARK  2100   30     360/  7/ 10 1035.1
NORTH JETTY/GLS  2130      43  360/ 15/ 18 1034.4
EAGLE POINT      2130   28 46   20/  7/ 12 1036.0
MORGANS POINT    2130      49   10/  6/  8 1036.4
PORT O`CONNOR    2130   30 40  360/ 24/ 30 1037.1
MALAQUITE BEACH  2130   32 53  340/ 19/ 25 1036.0
BAFFIN BAY       2130   30 50  340/ 22/ 26 1037.0
PORT ISABEL      2130   35 58  330/ 23/ 30 1033.4
$$



USA.gov is the U.S. government's official web portal to all federal, state and local government web resources and services.